Corpus Christi NAS, TX

2:05 PM CDT on June 23, 2017 (GMT -0500)
Corpus Christi Naval Air Station-Truax

Weather History for KNGP - September, 2013

Change the Weather History Date:

Wednesday, September 11, 2013

  Actual Average Record
Temperature  
Mean Temperature 82 °F -  
Max Temperature 88 °F 87 °F 93 °F (2000)
Min Temperature 77 °F 74 °F 70 °F (2011)
Cooling Degree Days 18    
Growing Degree Days 32 (Base 50)    
Moisture  
Dew Point 76 °F    
Average Humidity 81    
Maximum Humidity 90    
Minimum Humidity 67    
Precipitation  
Precipitation 0.09 in - - ()
Sea Level Pressure  
Sea Level Pressure 29.99 in    
Wind  
Wind Speed 10 mph (ESE)    
Max Wind Speed 24 mph    
Max Gust Speed 31 mph    
Visibility 10 miles    
Events Rain    
Averages and records for this station are not official NWS values.
T = Trace of Precipitation, MM = Missing Value Source: NWS Daily Summary

Daily Weather History Graph

Daily Weather History Graph

Search for Another Location

Airport or City:

Trip Planner

Search our weather history database for the weather conditions in past years. The results will help you decide how hot, cold, wet, or windy it might be!

Date:

Astronomy

Sep. 11, 2013 Rise Set
Actual Time 7:12 AM CDT 7:38 PM CDT
Civil Twilight 6:49 AM CDT 8:01 PM CDT
Nautical Twilight 6:21 AM CDT 8:29 PM CDT
Astronomical Twilight 5:53 AM CDT 8:56 PM CDT
Moon 1:09 PM CDT (9/11) No Moon Set
Length of Visible Light 13h 12m
Length of Day
12h 25m
Waxing Crescent, 39% of the Moon is Illuminated
Sep 11
Waxing Crescent
Sep 12
First Quarter
Sep 19
Full
Sep 26
Last Quarter
Oct 4
New

Hourly Weather History & Observations

Time (CDT) Temp. Heat Index Dew Point Humidity Pressure Visibility Wind Dir Wind Speed Gust Speed Precip Events Conditions
12:56 AM 80.1 °F 85.4 °F 75.9 °F 87% 29.99 in 10.0 mi ESE 9.2 mph - N/A   Clear
1:56 AM 80.1 °F 85.4 °F 75.9 °F 87% 29.99 in 10.0 mi ESE 8.1 mph - N/A   Partly Cloudy
2:56 AM 80.1 °F 85.1 °F 75.0 °F 85% 29.97 in 10.0 mi ESE 8.1 mph - N/A   Clear
3:56 AM 79.0 °F - 75.9 °F 90% 29.97 in 10.0 mi ESE 3.5 mph - N/A   Partly Cloudy
4:56 AM 79.0 °F - 75.9 °F 90% 29.97 in 10.0 mi East 5.8 mph - N/A   Clear
5:56 AM 79.0 °F - 75.9 °F 90% 29.97 in 10.0 mi East 4.6 mph - N/A   Partly Cloudy
6:56 AM 80.1 °F 85.4 °F 75.9 °F 87% 29.98 in 10.0 mi East 4.6 mph - N/A   Mostly Cloudy
7:31 AM 80.6 °F 86.2 °F 75.2 °F 84% 29.99 in 10.0 mi East 9.2 mph - 0.00 in Rain Light Rain
7:40 AM 80.6 °F 85.4 °F 73.4 °F 79% 29.99 in 10.0 mi East 9.2 mph - 0.00 in   Mostly Cloudy
7:56 AM 79.0 °F - 73.9 °F 84% 29.99 in 10.0 mi ESE 9.2 mph - 0.00 in   Mostly Cloudy
8:56 AM 81.0 °F 87.9 °F 77.0 °F 88% 30.01 in 10.0 mi East 8.1 mph - N/A   Mostly Cloudy
9:56 AM 82.9 °F 90.2 °F 75.0 °F 77% 30.03 in 10.0 mi East 9.2 mph - N/A   Mostly Cloudy
10:56 AM 87.1 °F 97.3 °F 75.9 °F 69% 30.03 in 10.0 mi East 12.7 mph - N/A   Mostly Cloudy
11:56 AM 84.9 °F 94.1 °F 75.9 °F 74% 30.03 in 10.0 mi East 12.7 mph - N/A   Mostly Cloudy
12:56 PM 87.1 °F 97.3 °F 75.9 °F 69% 30.02 in 10.0 mi East 16.1 mph - N/A   Mostly Cloudy
1:27 PM 82.4 °F 88.2 °F 73.4 °F 74% 30.02 in 9.0 mi ESE 24.2 mph 31.1 mph 0.00 in Rain Light Rain
1:32 PM 78.8 °F - 75.2 °F 89% 30.01 in 6.0 mi SE 12.7 mph 31.1 mph 0.05 in Rain Light Rain
1:56 PM 84.9 °F 96.6 °F 78.1 °F 80% 30.01 in 10.0 mi East 15.0 mph - 0.06 in   Mostly Cloudy
2:56 PM 88.0 °F 101.3 °F 78.1 °F 72% 29.99 in 10.0 mi ESE 15.0 mph - N/A   Mostly Cloudy
3:56 PM 88.0 °F 98.5 °F 75.9 °F 67% 29.97 in 10.0 mi East 18.4 mph - N/A   Mostly Cloudy
4:48 PM 80.6 °F 85.4 °F 73.4 °F 79% 29.98 in 6.0 mi SE 20.7 mph 31.1 mph 0.00 in Rain Light Rain
4:56 PM 78.1 °F - 75.0 °F 90% 29.98 in 3.0 mi SE 15.0 mph - 0.02 in Rain Rain
5:09 PM 77.0 °F - 73.4 °F 89% 29.97 in 10.0 mi SE 8.1 mph - 0.00 in   Mostly Cloudy
5:56 PM 82.9 °F 90.8 °F 75.9 °F 79% 29.97 in 10.0 mi ESE 13.8 mph - 0.00 in   Mostly Cloudy
6:56 PM 82.9 °F 90.8 °F 75.9 °F 79% 29.96 in 10.0 mi East 13.8 mph - N/A   Mostly Cloudy
7:56 PM 82.9 °F 90.2 °F 75.0 °F 77% 29.96 in 10.0 mi East 11.5 mph - N/A   Mostly Cloudy
8:56 PM 82.9 °F 90.2 °F 75.0 °F 77% 29.98 in 10.0 mi East 10.4 mph - N/A   Mostly Cloudy
9:56 PM 82.9 °F 90.8 °F 75.9 °F 79% 29.99 in 10.0 mi East 11.5 mph - N/A   Scattered Clouds
10:14 PM 82.4 °F 89.5 °F 75.2 °F 79% 30.00 in 10.0 mi ESE 16.1 mph - 0.01 in Rain Light Rain
10:26 PM 82.4 °F 90.9 °F 77.0 °F 84% 30.00 in 10.0 mi East 9.2 mph - 0.01 in   Scattered Clouds
10:56 PM 82.0 °F 89.4 °F 75.9 °F 82% 29.99 in 10.0 mi ESE 10.4 mph - 0.01 in   Scattered Clouds
11:56 PM 82.0 °F 89.4 °F 75.9 °F 82% 29.99 in 10.0 mi East 10.4 mph - N/A   Partly Cloudy